DUCHIFAT-3

Last updated on Mon Sep 15 2025 00:03:09 GMT+0000 (Coordinated Universal Time)

1 44854U 19089C 25257.26215554 .00058660 00000+0 79113-3 0 9991 2 44854 36.9378 96.5116 0007307 350.3614 9.7005 15.56710559318030
UTC large
Height (km)
Speed (km/s)
/
Latitude / Longitude
Inclination (degrees)
Orbital Period (minutes)
Azimuth
Elevation
Range (km)
Doppler Factor

Next 0 passes for location: London (51.5072 / 0.1276)

Sorry there are no passes over London.